Weather History for Hot Springs, VA

Change the Weather History Date:

Thursday, March 14, 2013

  Actual Average Record
Temperature  
Mean Temperature 23 °F -  
Max Temperature 32 °F 41 °F 69 °F (2012)
Min Temperature 14 °F 26 °F 14 °F (2013)
Degree Days  
Heating Degree Days 42    
Moisture  
Dew Point 13 °F    
Average Humidity 68    
Maximum Humidity 93    
Minimum Humidity 47    
Precipitation  
Precipitation 0.00 in - - ()
Sea Level Pressure  
Sea Level Pressure 30.02 in    
Wind  
Wind Speed 20 mph (WNW)    
Max Wind Speed 28 mph    
Max Gust Speed 40 mph    
Visibility 10 miles    
Events Snow    
Averages and records for this station are not official NWS values.
T = Trace of Precipitation, MM = Missing Value Source: NWS Daily Summary

Daily Weather History Graph

Daily Weather History Graph

Search for Another Location

Airport:

Trip Planner

Search our weather history database for the weather conditions in past years. The results will help you decide how hot, cold, wet, or windy it might be!

Date:

Astronomy

Mar. 14, 2013 Rise Set
Actual Time 7:31 AM EDT 7:25 PM EDT
Civil Twilight 7:05 AM EDT 7:52 PM EDT
Nautical Twilight 6:34 AM EDT 8:22 PM EDT
Astronomical Twilight 6:04 AM EDT 8:53 PM EDT
Moon 8:48 AM EDT (3/14) 10:36 PM EDT (3/14)
Length of Visible Light 12h 46m
Length of Day
11h 54m
Waxing Crescent, 9% of the Moon is Illuminated
Mar 14
Waxing Crescent
Mar 19
First Quarter
Mar 27
Full
Apr 3
Last Quarter
Apr 10
New

Hourly Weather History & Observations

Time (EDT) Temp. Windchill Dew Point Humidity Pressure Visibility Wind Dir Wind Speed Gust Speed Precip Events Conditions
12:15 AM 17.6 °F 1.7 °F 15.8 °F 93% 29.97 in 4.0 mi WNW 18.4 mph 27.6 mph N/A Snow Light Snow
12:35 AM 17.6 °F -0.3 °F 15.8 °F 93% 29.97 in 4.0 mi WNW 24.2 mph 32.2 mph N/A Snow Light Snow
12:55 AM 17.6 °F 0.9 °F 15.8 °F 93% 29.97 in 5.0 mi WNW 20.7 mph 31.1 mph N/A Snow Light Snow
1:15 AM 17.6 °F -0.3 °F 14.0 °F 86% 29.97 in 5.0 mi WNW 24.2 mph 33.4 mph N/A Snow Light Snow
1:35 AM 17.6 °F 0.5 °F 12.2 °F 79% 29.97 in 10.0 mi WNW 21.9 mph 32.2 mph N/A Snow Light Snow
1:55 AM 17.6 °F 0.5 °F 12.2 °F 79% 29.98 in 10.0 mi WNW 21.9 mph 35.7 mph N/A Snow Light Snow
2:15 AM 17.6 °F 2.2 °F 12.2 °F 79% 29.97 in 10.0 mi WNW 17.3 mph 33.4 mph N/A   Overcast
2:35 AM 17.6 °F 0.1 °F 10.4 °F 73% 29.97 in 10.0 mi WNW 23.0 mph 35.7 mph N/A   Overcast
2:55 AM 17.6 °F -0.6 °F 10.4 °F 73% 29.97 in 10.0 mi WNW 25.3 mph 34.5 mph N/A   Overcast
3:15 AM 15.8 °F -2.7 °F 10.4 °F 79% 29.98 in 10.0 mi WNW 24.2 mph 33.4 mph N/A   Overcast
3:35 AM 15.8 °F -2.7 °F 12.2 °F 86% 29.97 in 10.0 mi WNW 24.2 mph 33.4 mph N/A Snow Light Snow
3:55 AM 15.8 °F -2.3 °F 12.2 °F 86% 29.96 in 7.0 mi WNW 23.0 mph 33.4 mph N/A Snow Light Snow
4:15 AM 15.8 °F -1.5 °F 12.2 °F 86% 29.96 in 7.0 mi WNW 20.7 mph 33.4 mph N/A Snow Light Snow
4:35 AM 15.8 °F -1.5 °F 12.2 °F 86% 29.96 in 10.0 mi WNW 20.7 mph 29.9 mph N/A Snow Light Snow
4:55 AM 15.8 °F 0.3 °F 12.2 °F 86% 29.96 in 10.0 mi WNW 16.1 mph 32.2 mph N/A Snow Light Snow
5:15 AM 15.8 °F 0.9 °F 10.4 °F 79% 29.97 in 10.0 mi WNW 15.0 mph 29.9 mph N/A Snow Light Snow
5:35 AM 15.8 °F -1.1 °F 10.4 °F 79% 29.96 in 10.0 mi WNW 19.6 mph 27.6 mph N/A   Overcast
5:55 AM 15.8 °F -3.1 °F 10.4 °F 79% 29.97 in 10.0 mi WNW 25.3 mph 40.3 mph N/A Snow Light Snow
6:15 AM 15.8 °F -3.1 °F 10.4 °F 79% 29.99 in 10.0 mi WNW 25.3 mph 36.8 mph N/A   Scattered Clouds
6:35 AM 15.8 °F -3.7 °F 10.4 °F 79% 30.00 in 10.0 mi WNW 27.6 mph 35.7 mph N/A   Clear
6:55 AM 14.0 °F -5.8 °F 10.4 °F 86% 30.02 in 10.0 mi WNW 26.5 mph 32.2 mph N/A   Unknown
7:15 AM 14.0 °F -5.5 °F 10.4 °F 86% 30.03 in 10.0 mi WNW 25.3 mph 33.4 mph N/A   Mostly Cloudy
7:35 AM 14.0 °F -5.8 °F 10.4 °F 86% 30.03 in 10.0 mi WNW 26.5 mph 31.1 mph N/A   Mostly Cloudy
7:55 AM 14.0 °F -5.1 °F 8.6 °F 79% 30.05 in 10.0 mi West 24.2 mph 28.8 mph N/A   Unknown
8:15 AM 14.0 °F -5.1 °F 8.6 °F 79% 30.05 in 10.0 mi WNW 24.2 mph 32.2 mph N/A   Scattered Clouds
8:35 AM 15.8 °F -2.7 °F 10.4 °F 79% 30.04 in 10.0 mi West 24.2 mph 31.1 mph N/A   Mostly Cloudy
8:55 AM 15.8 °F -2.7 °F 10.4 °F 79% 30.05 in 10.0 mi West 24.2 mph 31.1 mph N/A   Mostly Cloudy
9:15 AM 17.6 °F 2.2 °F 10.4 °F 73% 30.06 in 10.0 mi WNW 17.3 mph 25.3 mph N/A   Mostly Cloudy
9:35 AM 17.6 °F 2.2 °F 12.2 °F 79% 30.06 in 10.0 mi WNW 17.3 mph 25.3 mph N/A   Overcast
9:55 AM 17.6 °F 1.3 °F 12.2 °F 79% 30.06 in 10.0 mi WNW 19.6 mph 26.5 mph N/A   Overcast
10:15 AM 17.6 °F 3.2 °F 12.2 °F 79% 30.06 in 10.0 mi WNW 15.0 mph 28.8 mph N/A   Mostly Cloudy
10:35 AM 19.4 °F 5.5 °F 12.2 °F 74% 30.06 in 10.0 mi West 15.0 mph 26.5 mph N/A   Mostly Cloudy
10:55 AM 19.4 °F 6.0 °F 12.2 °F 74% 30.07 in 10.0 mi WNW 13.8 mph 23.0 mph N/A   Scattered Clouds
11:15 AM 21.2 °F 6.8 °F 12.2 °F 68% 30.06 in 10.0 mi West 17.3 mph 25.3 mph N/A   Scattered Clouds
11:35 AM 21.2 °F 7.8 °F 12.2 °F 68% 30.06 in 10.0 mi WNW 15.0 mph 20.7 mph N/A   Clear
11:55 AM 23.0 °F 9.2 °F 14.0 °F 68% 30.05 in 10.0 mi WNW 17.3 mph 24.2 mph N/A   Clear
12:15 PM 24.8 °F 10.7 °F 14.0 °F 64% 30.05 in 10.0 mi West 19.6 mph 28.8 mph N/A   Clear
12:35 PM 26.6 °F 13.4 °F 15.8 °F 64% 30.05 in 10.0 mi West 18.4 mph 27.6 mph N/A   Clear
12:55 PM 26.6 °F 13.8 °F 15.8 °F 64% 30.05 in 10.0 mi WNW 17.3 mph 25.3 mph N/A   Clear
1:15 PM 28.4 °F 15.8 °F 15.8 °F 59% 30.05 in 10.0 mi West 18.4 mph 28.8 mph N/A   Clear
1:35 PM 28.4 °F 15.4 °F 15.8 °F 59% 30.05 in 10.0 mi NW 19.6 mph 32.2 mph N/A   Clear
1:55 PM 30.2 °F 18.9 °F 15.8 °F 55% 30.05 in 10.0 mi WNW 16.1 mph 23.0 mph N/A   Clear
2:15 PM 30.2 °F 18.9 °F 15.8 °F 55% 30.04 in 10.0 mi WNW 16.1 mph 28.8 mph N/A   Clear
2:35 PM 30.2 °F 19.3 °F 15.8 °F 55% 30.04 in 10.0 mi WNW 15.0 mph 26.5 mph N/A   Clear
2:55 PM 32.0 °F 22.5 °F 15.8 °F 51% 30.04 in 10.0 mi WNW 12.7 mph 24.2 mph N/A   Clear
3:15 PM 32.0 °F 21.6 °F 14.0 °F 48% 30.03 in 10.0 mi West 15.0 mph 23.0 mph N/A   Clear
3:55 PM 32.0 °F 22.1 °F 15.8 °F 51% 30.04 in 10.0 mi WNW 13.8 mph 21.9 mph N/A   Scattered Clouds
4:15 PM 32.0 °F 20.1 °F 15.8 °F 51% 30.04 in 10.0 mi West 19.6 mph 25.3 mph N/A   Scattered Clouds
4:35 PM 32.0 °F 21.6 °F 15.8 °F 51% 30.03 in 10.0 mi WNW 15.0 mph 25.3 mph N/A   Clear
4:55 PM 32.0 °F 19.5 °F 14.0 °F 48% 30.03 in 10.0 mi West 21.9 mph 26.5 mph N/A   Clear
5:15 PM 30.2 °F 17.4 °F 12.2 °F 47% 30.03 in 10.0 mi West 20.7 mph 28.8 mph N/A   Clear
5:35 PM 30.2 °F 18.9 °F 12.2 °F 47% 30.02 in 10.0 mi West 16.1 mph 26.5 mph N/A   Clear
5:55 PM 30.2 °F 18.1 °F 15.8 °F 55% 30.03 in 10.0 mi West 18.4 mph 25.3 mph N/A   Clear
6:15 PM 30.2 °F 19.3 °F 14.0 °F 51% 30.03 in 10.0 mi West 15.0 mph 26.5 mph N/A   Clear
6:35 PM 28.4 °F 16.6 °F 14.0 °F 55% 30.04 in 10.0 mi West 16.1 mph 24.2 mph N/A   Clear
6:55 PM 28.4 °F 16.2 °F 12.2 °F 51% 30.04 in 10.0 mi West 17.3 mph 24.2 mph N/A   Clear
7:15 PM 28.4 °F 17.0 °F 12.2 °F 51% 30.04 in 10.0 mi West 15.0 mph 25.3 mph N/A   Clear
7:35 PM 26.6 °F 14.3 °F 12.2 °F 55% 30.05 in 10.0 mi West 16.1 mph 26.5 mph N/A   Clear
7:55 PM 26.6 °F 13.4 °F 12.2 °F 55% 30.04 in 10.0 mi West 18.4 mph 24.2 mph N/A   Clear
8:15 PM 26.6 °F 13.8 °F 12.2 °F 55% 30.04 in 10.0 mi WNW 17.3 mph 25.3 mph N/A   Unknown
8:35 PM 26.6 °F 13.4 °F 12.2 °F 55% 30.05 in 10.0 mi West 18.4 mph 26.5 mph N/A   Clear
8:55 PM 26.6 °F 12.7 °F 12.2 °F 55% 30.04 in 10.0 mi WNW 20.7 mph 26.5 mph N/A   Clear
9:15 PM 26.6 °F 13.1 °F 12.2 °F 55% 30.04 in 10.0 mi WNW 19.6 mph 27.6 mph N/A   Clear
9:35 PM 26.6 °F 13.1 °F 10.4 °F 51% 30.04 in 10.0 mi WNW 19.6 mph 26.5 mph N/A   Clear
9:55 PM 24.8 °F 9.0 °F 10.4 °F 54% 30.04 in 10.0 mi West 25.3 mph - N/A   Clear
10:15 PM 24.8 °F 9.6 °F 12.2 °F 59% 30.04 in 10.0 mi WNW 23.0 mph 28.8 mph N/A   Clear
10:35 PM 24.8 °F 10.0 °F 12.2 °F 59% 30.04 in 10.0 mi WNW 21.9 mph 29.9 mph N/A   Clear
10:55 PM 24.8 °F 10.0 °F 12.2 °F 59% 30.04 in 10.0 mi WNW 21.9 mph 32.2 mph N/A   Unknown
11:15 PM 24.8 °F 10.0 °F 12.2 °F 59% 30.04 in 10.0 mi WNW 21.9 mph 29.9 mph N/A   Clear
11:35 PM 24.8 °F 10.7 °F 12.2 °F 59% 30.04 in 10.0 mi WNW 19.6 mph 26.5 mph N/A   Clear
11:55 PM 24.8 °F 10.0 °F 12.2 °F 59% 30.03 in 10.0 mi WNW 21.9 mph 29.9 mph N/A   Unknown